Powrót do katalogu

JCSAT 2A

AktywnyŁącznośćGEO
NORAD 27399·PAYLOAD·🇯🇵 Japan

Wystrzelony Mar 29, 2002 z Guiana Space Centre

Loading…

TLE

ŚwieżeSource: Space-Track

Epoka: Sep 14, 2026, 10:30 UTC

1 27399U 02015A   26257.43807655  .00000002  00000-0  00000-0 0  9990
2 27399   8.5203  63.1748 0007552 105.6830 243.7768  0.99025543 89530

Śledź JCSAT 2A w czasie rzeczywistym z AllMySat

Download on the App Store